| time (UTC) | temp F | wind direction | speed knots | gust knots | rain 1hr in | rain 24hr in | rain mn in | humidity % | barometer mb |
| 20260906021600 | 79 | 301 | 0.9 | 4.3 | 0.00 | 0.00 | 0.00 | 84 | 1012.4 |
| 20260906020104 | 81 | 0 | 0.0 | 1.7 | 0.00 | 0.00 | 0.00 | 81 | 1012.0 |
| 20260906014603 | 80 | 0 | 0.0 | 0.0 | 0.00 | 0.00 | 0.00 | 82 | 1011.4 |
| 20260906013058 | 80 | 0 | 0.0 | 0.0 | 0.00 | 0.00 | 0.00 | 82 | 1011.2 |
| 20260906011607 | 81 | 0 | 0.0 | 0.0 | 0.00 | 0.00 | 0.00 | 82 | 1011.5 |
| 20260906010057 | 82 | 0 | 0.0 | 0.0 | 0.00 | 0.00 | 0.00 | 79 | 1011.2 |
| 20260906004601 | 83 | 0 | 0.0 | 0.0 | 0.00 | 0.00 | 0.00 | 74 | 1011.3 |
| 20260906003113 | 84 | 0 | 0.0 | 0.9 | 0.00 | 0.00 | 0.00 | 72 | 1011.5 |
| 20260906001600 | 85 | 0 | 0.0 | 0.9 | 0.00 | 0.00 | 0.00 | 71 | 1011.7 |
| 20260906000057 | 86 | 0 | 0.0 | 0.0 | 0.00 | 0.00 | 0.00 | 70 | 1011.9 |
| 20260905234551 | 87 | 0 | 0.0 | 0.0 | 0.00 | 0.00 | 0.00 | 68 | 1012.1 |
| 20260905233114 | 88 | 0 | 0.0 | 0.0 | 0.00 | 0.00 | 0.00 | 66 | 1011.9 |
| 20260905231557 | 89 | 0 | 0.0 | 0.0 | 0.00 | 0.00 | 0.00 | 64 | 1011.9 |
| 20260905230059 | 90 | 0 | 0.0 | 0.0 | 0.00 | 0.00 | 0.00 | 63 | 1011.7 |
| 20260905224611 | 91 | 0 | 0.0 | 2.6 | 0.00 | 0.00 | 0.00 | 60 | 1011.7 |
| 20260905223100 | 92 | 319 | 0.9 | 7.0 | 0.00 | 0.00 | 0.00 | 57 | 1011.7 |
| 20260905221601 | 93 | 300 | 0.9 | 3.5 | 0.00 | 0.00 | 0.00 | 55 | 1011.8 |
| 20260905220056 | 92 | 310 | 2.6 | 9.6 | 0.00 | 0.00 | 0.00 | 57 | 1011.7 |
| 20260905214555 | 93 | 297 | 4.3 | 8.7 | 0.00 | 0.00 | 0.00 | 57 | 1011.7 |
| 20260905213101 | 93 | 256 | 1.7 | 7.0 | 0.00 | 0.00 | 0.00 | 55 | 1011.7 |
| 20260905211603 | 93 | 257 | 1.7 | 4.3 | 0.00 | 0.00 | 0.00 | 58 | 1011.7 |
| 20260905204602 | 93 | 290 | 2.6 | 7.0 | 0.00 | 0.00 | 0.00 | 58 | 1012.1 |
| 20260905203106 | 94 | 306 | 3.5 | 8.7 | 0.00 | 0.00 | 0.00 | 57 | 1012.0 |
| 20260905201607 | 93 | 0 | 2.6 | 7.8 | 0.00 | 0.00 | 0.00 | 54 | 1012.4 |
| 20260905200100 | 93 | 254 | 1.7 | 7.0 | 0.00 | 0.00 | 0.00 | 58 | 1012.6 |
| 20260905194604 | 93 | 304 | 3.5 | 7.0 | 0.00 | 0.00 | 0.00 | 56 | 1012.8 |
| 20260905193100 | 93 | 304 | 0.9 | 5.2 | 0.00 | 0.00 | 0.00 | 55 | 1013.0 |
| 20260905191557 | 93 | 296 | 0.9 | 4.3 | 0.00 | 0.00 | 0.00 | 59 | 1013.1 |
| 20260905190112 | 92 | 0 | 0.9 | 8.7 | 0.00 | 0.00 | 0.00 | 57 | 1013.4 |
| 20260905184621 | 92 | 304 | 2.6 | 5.2 | 0.00 | 0.00 | 0.00 | 57 | 1013.4 |
| 20260905183105 | 92 | 231 | 2.6 | 4.3 | 0.00 | 0.00 | 0.00 | 60 | 1013.7 |
| 20260905181555 | 92 | 325 | 0.9 | 3.5 | 0.00 | 0.00 | 0.00 | 61 | 1013.8 |
| 20260905180059 | 91 | 192 | 0.9 | 4.3 | 0.00 | 0.00 | 0.00 | 61 | 1014.0 |
| 20260905174559 | 89 | 72 | 0.9 | 6.1 | 0.00 | 0.00 | 0.00 | 61 | 1014.2 |
| 20260905173104 | 90 | 121 | 2.6 | 5.2 | 0.00 | 0.00 | 0.00 | 61 | 1014.4 |
| 20260905171553 | 90 | 302 | 0.9 | 4.3 | 0.00 | 0.00 | 0.00 | 65 | 1014.7 |
| 20260905164555 | 88 | 190 | 1.7 | 5.2 | 0.00 | 0.00 | 0.00 | 63 | 1015.0 |
| 20260905163053 | 88 | 0 | 0.9 | 8.7 | 0.00 | 0.00 | 0.00 | 64 | 1014.9 |
| 20260905161557 | 87 | 58 | 1.7 | 5.2 | 0.00 | 0.00 | 0.00 | 64 | 1014.9 |
| 20260905160058 | 87 | 45 | 0.9 | 6.1 | 0.00 | 0.00 | 0.00 | 66 | 1014.9 |
| 20260905154554 | 85 | 35 | 1.7 | 8.7 | 0.00 | 0.00 | 0.00 | 69 | 1015.2 |
| 20260905153054 | 84 | 61 | 2.6 | 7.8 | 0.00 | 0.00 | 0.00 | 67 | 1015.6 |
| 20260905151601 | 83 | 51 | 0.9 | 7.0 | 0.00 | 0.00 | 0.00 | 69 | 1015.6 |
| 20260905150055 | 83 | 76 | 2.6 | 8.7 | 0.00 | 0.00 | 0.00 | 69 | 1015.6 |
| 20260905144555 | 82 | 29 | 4.3 | 10.4 | 0.00 | 0.00 | 0.00 | 72 | 1015.7 |
| 20260905143052 | 81 | 9 | 2.6 | 7.0 | 0.00 | 0.00 | 0.00 | 74 | 1015.7 |
| 20260905141619 | 81 | 20 | 1.7 | 7.0 | 0.00 | 0.00 | 0.00 | 76 | 1015.7 |
| 20260905140056 | 83 | 38 | 0.9 | 8.7 | 0.00 | 0.00 | 0.00 | 75 | 1015.7 |
| 20260905134553 | 82 | 53 | 1.7 | 5.2 | 0.00 | 0.00 | 0.00 | 80 | 1015.2 |
| 20260905133055 | 81 | 352 | 0.9 | 2.6 | 0.00 | 0.00 | 0.00 | 85 | 1015.3 |
| 20260905131605 | 80 | 0 | 0.0 | 1.7 | 0.00 | 0.00 | 0.00 | 90 | 1015.1 |
| 20260905130050 | 77 | 159 | 0.0 | 1.7 | 0.00 | 0.00 | 0.00 | 96 | 1015.3 |
| 20260905124558 | 75 | 0 | 0.9 | 3.5 | 0.00 | 0.00 | 0.00 | 98 | 1015.5 |
| 20260905123100 | 73 | 0 | 0.0 | 0.0 | 0.00 | 0.00 | 0.00 | 98 | 1015.3 |
| 20260905121552 | 72 | 0 | 0.0 | 0.0 | 0.00 | 0.00 | 0.00 | 97 | 1014.9 |
| 20260905114603 | 71 | 0 | 0.0 | 0.0 | 0.00 | 0.00 | 0.00 | 97 | 1014.7 |
| 20260905113101 | 71 | 0 | 0.0 | 0.0 | 0.00 | 0.00 | 0.00 | 97 | 1014.6 |
| 20260905111557 | 71 | 0 | 0.0 | 0.0 | 0.00 | 0.00 | 0.00 | 97 | 1014.5 |
| 20260905110055 | 71 | 0 | 0.0 | 0.0 | 0.00 | 0.00 | 0.00 | 97 | 1014.3 |
| 20260905104555 | 71 | 0 | 0.0 | 0.0 | 0.00 | 0.00 | 0.00 | 97 | 1014.2 |
| 20260905103056 | 71 | 0 | 0.0 | 0.0 | 0.00 | 0.00 | 0.00 | 97 | 1014.0 |
| 20260905101613 | 72 | 0 | 0.0 | 0.0 | 0.00 | 0.00 | 0.00 | 97 | 1014.1 |
| 20260905100055 | 71 | 0 | 0.0 | 0.0 | 0.00 | 0.00 | 0.00 | 97 | 1014.0 |
| 20260905094555 | 72 | 0 | 0.0 | 0.0 | 0.00 | 0.00 | 0.00 | 96 | 1013.8 |
| 20260905093050 | 72 | 0 | 0.0 | 0.0 | 0.00 | 0.00 | 0.00 | 97 | 1013.6 |
| 20260905091609 | 72 | 0 | 0.0 | 0.0 | 0.00 | 0.00 | 0.00 | 97 | 1013.6 |
| 20260905090055 | 72 | 0 | 0.0 | 0.0 | 0.00 | 0.00 | 0.00 | 97 | 1013.6 |
| 20260905084617 | 72 | 0 | 0.0 | 0.0 | 0.00 | 0.00 | 0.00 | 96 | 1013.5 |
| 20260905083055 | 73 | 0 | 0.0 | 0.0 | 0.00 | 0.00 | 0.00 | 97 | 1013.5 |
| 20260905081559 | 72 | 0 | 0.0 | 0.0 | 0.00 | 0.00 | 0.00 | 96 | 1013.5 |
| 20260905080055 | 73 | 0 | 0.0 | 0.0 | 0.00 | 0.00 | 0.00 | 96 | 1013.6 |
| 20260905074556 | 73 | 0 | 0.0 | 0.0 | 0.00 | 0.00 | 0.00 | 96 | 1013.7 |
| 20260905073058 | 73 | 0 | 0.0 | 0.0 | 0.00 | 0.00 | 0.00 | 96 | 1013.8 |
| 20260905071604 | 73 | 0 | 0.0 | 0.0 | 0.00 | 0.00 | 0.00 | 96 | 1013.9 |
| 20260905064554 | 73 | 0 | 0.0 | 0.0 | 0.00 | 0.00 | 0.00 | 96 | 1014.3 |
| 20260905063058 | 73 | 0 | 0.0 | 0.0 | 0.00 | 0.00 | 0.00 | 96 | 1014.4 |
| 20260905061616 | 74 | 0 | 0.0 | 0.0 | 0.00 | 0.00 | 0.00 | 96 | 1014.7 |
| 20260905060056 | 74 | 0 | 0.0 | 0.0 | 0.00 | 0.00 | 0.00 | 96 | 1014.7 |
| 20260905054604 | 74 | 0 | 0.0 | 0.0 | 0.00 | 0.00 | 0.00 | 95 | 1014.8 |
| 20260905053110 | 74 | 0 | 0.0 | 0.0 | 0.00 | 0.00 | 0.00 | 95 | 1014.9 |
| 20260905051602 | 74 | 0 | 0.0 | 0.9 | 0.00 | 0.00 | 0.00 | 95 | 1014.8 |
| 20260905050055 | 74 | 0 | 0.0 | 1.7 | 0.00 | 0.00 | 0.00 | 95 | 1014.7 |
| 20260905044601 | 75 | 0 | 0.0 | 0.9 | 0.00 | 0.00 | 0.00 | 95 | 1014.6 |
| 20260905043059 | 75 | 0 | 0.0 | 1.7 | 0.00 | 0.00 | 0.00 | 95 | 1014.7 |
| 20260905041601 | 75 | 159 | 0.0 | 0.9 | 0.00 | 0.00 | 0.00 | 94 | 1014.8 |
| 20260905040056 | 75 | 0 | 0.0 | 0.0 | 0.00 | 0.00 | 0.00 | 94 | 1014.8 |
| 20260905034601 | 75 | 0 | 0.0 | 0.0 | 0.00 | 0.00 | 0.00 | 94 | 1014.8 |
| 20260905033100 | 76 | 0 | 0.0 | 0.9 | 0.00 | 0.00 | 0.00 | 93 | 1014.9 |
| 20260905031602 | 76 | 0 | 0.0 | 0.9 | 0.00 | 0.00 | 0.00 | 92 | 1014.9 |
| 20260905030107 | 77 | 0 | 0.0 | 0.9 | 0.00 | 0.00 | 0.00 | 92 | 1014.9 |
| 20260905024632 | 77 | 0 | 0.0 | 0.0 | 0.00 | 0.00 | 0.00 | 92 | 1014.9 |
| 20260905023059 | 77 | 0 | 0.0 | 0.9 | 0.00 | 0.00 | 0.00 | 91 | 1014.9 |